N125HM KBNA-KMCO

Flight info

Callsign N125HM
Flight time 1h 12m
Altitude 37000
Route TIPPN4 DENST THRSR ZJAYX GRNCH5
Aircraft C750/M-SBDE3FGHRWXY/L

Departure

Time 2026-04-26 19:51
Airport Nashville International Airport (KBNA)

Arrival

Time 2026-04-26 21:04
Airport Orlando International Airport (KMCO)
Time Latitude Longitude Altitude Speed Heading
2026-04-26 19:31 36.12070 -86.67329 605 ft 0 kts 272°
2026-04-26 19:36 36.12069 -86.67333 605 ft 1 kts 228°
2026-04-26 19:36 36.12061 -86.67318 605 ft 5 kts 113°
2026-04-26 19:37 36.12050 -86.67281 605 ft 0 kts 93°
2026-04-26 19:45 36.12051 -86.67276 605 ft 3 kts 68°
2026-04-26 19:45 36.12059 -86.67275 605 ft 0 kts 320°
2026-04-26 19:46 36.12064 -86.67282 605 ft 4 kts 304°
2026-04-26 19:47 36.12079 -86.67326 605 ft 7 kts 306°
2026-04-26 19:47 36.12112 -86.67369 605 ft 11 kts 315°
2026-04-26 19:47 36.12221 -86.67394 605 ft 12 kts
2026-04-26 19:47 36.12297 -86.67437 605 ft 12 kts 308°
2026-04-26 19:48 36.12340 -86.67514 605 ft 6 kts 244°
2026-04-26 19:48 36.12293 -86.67584 605 ft 14 kts 243°
2026-04-26 19:48 36.12297 -86.67650 605 ft 0 kts 306°
2026-04-26 19:48 36.12340 -86.67724 605 ft 14 kts 297°
2026-04-26 19:49 36.12379 -86.67841 605 ft 14 kts 289°
2026-04-26 19:49 36.12382 -86.67855 606 ft 0 kts 290°
2026-04-26 19:50 36.12366 -86.67982 606 ft 31 kts 205°
2026-04-26 19:50 36.11838 -86.68195 606 ft 128 kts 197°
2026-04-26 19:51 36.10750 -86.68619 804 ft 192 kts 195°
2026-04-26 19:51 36.09264 -86.69199 1482 ft 226 kts 194°
2026-04-26 19:51 36.07716 -86.69765 2460 ft 221 kts 194°
2026-04-26 19:51 36.06210 -86.70319 3358 ft 224 kts 193°
2026-04-26 19:52 36.04660 -86.70901 4091 ft 239 kts 194°
2026-04-26 19:52 36.02960 -86.71542 5025 ft 263 kts 194°
2026-04-26 19:52 36.01140 -86.72230 6068 ft 275 kts 194°
2026-04-26 19:52 35.99288 -86.72934 6965 ft 282 kts 194°
2026-04-26 19:53 35.97353 -86.73666 7904 ft 286 kts 194°
2026-04-26 19:53 35.95353 -86.74307 8843 ft 287 kts 181°
2026-04-26 19:53 35.93338 -86.73672 9750 ft 282 kts 146°
2026-04-26 19:53 35.91611 -86.72255 10320 ft 289 kts 144°
2026-04-26 19:54 35.89769 -86.70753 10842 ft 308 kts 143°
2026-04-26 19:54 35.87889 -86.69209 11493 ft 319 kts 143°
2026-04-26 19:54 35.85886 -86.67561 12361 ft 321 kts 144°
2026-04-26 19:54 35.83926 -86.65952 12884 ft 323 kts 144°
2026-04-26 19:55 35.81834 -86.64231 13296 ft 330 kts 144°
2026-04-26 19:55 35.79707 -86.62486 13731 ft 335 kts 144°
2026-04-26 19:55 35.77579 -86.60737 14168 ft 340 kts 144°
2026-04-26 19:55 35.75366 -86.58924 14621 ft 343 kts 144°
2026-04-26 19:56 35.73164 -86.57119 15082 ft 346 kts 144°
2026-04-26 19:56 35.70937 -86.55295 15509 ft 349 kts 144°
2026-04-26 19:56 35.68741 -86.53498 15903 ft 353 kts 145°
2026-04-26 19:56 35.66448 -86.51620 16338 ft 356 kts 145°
2026-04-26 19:57 35.64101 -86.49689 16750 ft 359 kts 145°
2026-04-26 19:57 35.61805 -86.47804 17157 ft 362 kts 145°
2026-04-26 19:57 35.59619 -86.46069 17551 ft 368 kts 150°
2026-04-26 19:57 35.57048 -86.44978 18071 ft 369 kts 167°
2026-04-26 19:58 35.54450 -86.44197 18607 ft 371 kts 166°
2026-04-26 19:58 35.51897 -86.43403 19046 ft 376 kts 166°
2026-04-26 19:58 35.49331 -86.42596 19511 ft 379 kts 166°
2026-04-26 19:58 35.46717 -86.41769 19966 ft 382 kts 166°
2026-04-26 19:59 35.44059 -86.40926 20398 ft 386 kts 166°
2026-04-26 19:59 35.41424 -86.40090 20823 ft 390 kts 166°
2026-04-26 19:59 35.38763 -86.39054 21235 ft 395 kts 153°
2026-04-26 19:59 35.36498 -86.36946 21653 ft 399 kts 136°
2026-04-26 20:00 35.34386 -86.34658 22019 ft 403 kts 137°
2026-04-26 20:00 35.32262 -86.32352 22425 ft 406 kts 137°
2026-04-26 20:00 35.30121 -86.30032 22784 ft 410 kts 137°
2026-04-26 20:00 35.27953 -86.27686 23180 ft 412 kts 137°
2026-04-26 20:01 35.25776 -86.25333 23535 ft 416 kts 137°
2026-04-26 20:01 35.23592 -86.22971 23896 ft 419 kts 138°
2026-04-26 20:01 35.21331 -86.20529 24271 ft 422 kts 138°
2026-04-26 20:01 35.19040 -86.18061 24614 ft 425 kts 138°
2026-04-26 20:02 35.16808 -86.15655 24939 ft 428 kts 138°
2026-04-26 20:02 35.14538 -86.13211 25256 ft 431 kts 138°
2026-04-26 20:02 35.12245 -86.10744 25610 ft 433 kts 138°
2026-04-26 20:02 35.10714 -86.09098 25830 ft 435 kts 138°
2026-04-26 20:03 35.07677 -86.05831 26235 ft 439 kts 139°
2026-04-26 20:03 35.05341 -86.03324 26570 ft 440 kts 139°
2026-04-26 20:03 35.02996 -86.00810 26863 ft 443 kts 139°
2026-04-26 20:03 35.00655 -85.98302 27163 ft 445 kts 139°
2026-04-26 20:04 34.98243 -85.95718 27464 ft 448 kts 139°
2026-04-26 20:04 34.95861 -85.93169 27726 ft 451 kts 139°
2026-04-26 20:04 34.93410 -85.90550 27993 ft 454 kts 139°
2026-04-26 20:04 34.90961 -85.87935 28243 ft 457 kts 139°
2026-04-26 20:05 34.88535 -85.85344 28516 ft 459 kts 139°
2026-04-26 20:05 34.86035 -85.82679 28784 ft 461 kts 139°
2026-04-26 20:05 34.83530 -85.80006 29028 ft 464 kts 139°
2026-04-26 20:05 34.80997 -85.77309 29259 ft 466 kts 139°
2026-04-26 20:06 34.78491 -85.74640 29509 ft 468 kts 139°
2026-04-26 20:06 34.76008 -85.71927 29789 ft 470 kts 136°
2026-04-26 20:06 34.73593 -85.69103 29988 ft 473 kts 136°
2026-04-26 20:06 34.71140 -85.66263 30193 ft 476 kts 136°
2026-04-26 20:07 34.68706 -85.63451 30435 ft 477 kts 136°
2026-04-26 20:07 34.66262 -85.60626 30661 ft 479 kts 136°
2026-04-26 20:07 34.63808 -85.57799 30856 ft 481 kts 136°
2026-04-26 20:07 34.61324 -85.54934 31075 ft 483 kts 136°
2026-04-26 20:08 34.58878 -85.52114 31271 ft 485 kts 136°
2026-04-26 20:08 34.56385 -85.49254 31456 ft 487 kts 136°
2026-04-26 20:08 34.53901 -85.46395 31677 ft 489 kts 136°
2026-04-26 20:08 34.51383 -85.43506 31870 ft 491 kts 136°
2026-04-26 20:09 34.48883 -85.40637 32020 ft 493 kts 136°
2026-04-26 20:09 34.46359 -85.37740 32218 ft 495 kts 136°
2026-04-26 20:09 34.43845 -85.34861 32405 ft 497 kts 137°
2026-04-26 20:09 34.41295 -85.31943 32560 ft 499 kts 137°
2026-04-26 20:10 34.38755 -85.29040 32731 ft 500 kts 137°
2026-04-26 20:10 34.36160 -85.26077 32871 ft 502 kts 137°
2026-04-26 20:10 34.33594 -85.23148 33275 ft 498 kts 137°
2026-04-26 20:10 34.31064 -85.20265 33709 ft 497 kts 137°
2026-04-26 20:11 34.28531 -85.17380 34159 ft 498 kts 138°
2026-04-26 20:11 34.25972 -85.14466 34631 ft 499 kts 137°
2026-04-26 20:11 34.23419 -85.11565 35122 ft 500 kts 137°
2026-04-26 20:12 34.18286 -85.05734 36095 ft 501 kts 137°
2026-04-26 20:12 34.15718 -85.02819 36591 ft 501 kts 137°
2026-04-26 20:12 34.13170 -84.99933 36941 ft 505 kts 137°
2026-04-26 20:13 34.07888 -84.93951 36977 ft 525 kts 137°
2026-04-26 20:13 34.02424 -84.87777 36977 ft 540 kts 137°
2026-04-26 20:14 33.96827 -84.81464 36981 ft 553 kts 137°
2026-04-26 20:14 33.91103 -84.75015 36976 ft 565 kts 137°
2026-04-26 20:15 33.85235 -84.68433 36968 ft 574 kts 137°
2026-04-26 20:15 33.79366 -84.61851 36966 ft 579 kts 137°
2026-04-26 20:16 33.73293 -84.55048 36961 ft 580 kts 137°
2026-04-26 20:16 33.67327 -84.48387 36961 ft 579 kts 137°
2026-04-26 20:17 33.61058 -84.42255 36888 ft 572 kts 153°
2026-04-26 20:17 33.53839 -84.38030 36962 ft 570 kts 156°
2026-04-26 20:18 33.46680 -84.33775 36943 ft 570 kts 156°
2026-04-26 20:18 33.39475 -84.29481 36949 ft 569 kts 156°
2026-04-26 20:19 33.32305 -84.25221 36946 ft 568 kts 156°
2026-04-26 20:19 33.25104 -84.20945 36939 ft 569 kts 156°
2026-04-26 20:20 33.17949 -84.16702 36926 ft 569 kts 156°
2026-04-26 20:20 33.10752 -84.12444 36920 ft 568 kts 156°
2026-04-26 20:21 33.03677 -84.08269 36921 ft 568 kts 156°
2026-04-26 20:21 32.96296 -84.03918 36917 ft 568 kts 156°
2026-04-26 20:22 32.88966 -83.99610 36915 ft 568 kts 156°
2026-04-26 20:22 32.81555 -83.95259 36908 ft 568 kts 156°
2026-04-26 20:23 32.74166 -83.90928 36909 ft 568 kts 156°
2026-04-26 20:23 32.66857 -83.86651 36915 ft 566 kts 156°
2026-04-26 20:24 32.59586 -83.82407 36914 ft 566 kts 156°
2026-04-26 20:24 32.52344 -83.78189 36919 ft 566 kts 156°
2026-04-26 20:25 32.45198 -83.74027 36918 ft 566 kts 156°
2026-04-26 20:25 32.38061 -83.69888 36910 ft 566 kts 156°
2026-04-26 20:26 32.30913 -83.65741 36906 ft 566 kts 156°
2026-04-26 20:26 32.23603 -83.61510 36905 ft 565 kts 156°
2026-04-26 20:27 32.16483 -83.57399 36902 ft 563 kts 156°
2026-04-26 20:27 32.09310 -83.53262 36908 ft 562 kts 156°
2026-04-26 20:28 32.02184 -83.49164 36899 ft 562 kts 156°
2026-04-26 20:28 31.95009 -83.45038 36900 ft 562 kts 156°
2026-04-26 20:29 31.87870 -83.40943 36899 ft 561 kts 156°
2026-04-26 20:29 31.80707 -83.36838 36904 ft 561 kts 156°
2026-04-26 20:30 31.73596 -83.32773 36903 ft 561 kts 157°
2026-04-26 20:30 31.66456 -83.28711 36908 ft 561 kts 157°
2026-04-26 20:31 31.59390 -83.24712 36899 ft 560 kts 158°
2026-04-26 20:31 31.52285 -83.20734 36892 ft 556 kts 157°
2026-04-26 20:32 31.45246 -83.16797 36884 ft 552 kts 157°
2026-04-26 20:32 31.38244 -83.12882 36873 ft 550 kts 158°
2026-04-26 20:33 31.31302 -83.09013 36874 ft 549 kts 157°
2026-04-26 20:33 31.24355 -83.05139 36876 ft 547 kts 157°
2026-04-26 20:34 31.17364 -83.01257 36882 ft 546 kts 157°
2026-04-26 20:34 31.10434 -82.97417 36693 ft 549 kts 157°
2026-04-26 20:34 31.06958 -82.95480 36375 ft 554 kts 157°
2026-04-26 20:35 31.03427 -82.93531 36056 ft 559 kts 156°
2026-04-26 20:35 30.99855 -82.91554 35743 ft 562 kts 157°
2026-04-26 20:35 30.96299 -82.89582 35438 ft 558 kts 157°
2026-04-26 20:35 30.92767 -82.87629 35129 ft 556 kts 156°
2026-04-26 20:36 30.89285 -82.85603 34906 ft 556 kts 150°
2026-04-26 20:36 30.83142 -82.80190 34891 ft 543 kts 143°
2026-04-26 20:37 30.77176 -82.74802 34879 ft 531 kts 143°
2026-04-26 20:37 30.71339 -82.69537 34881 ft 521 kts 143°
2026-04-26 20:38 30.65606 -82.64373 34881 ft 513 kts 143°
2026-04-26 20:38 30.59943 -82.59287 34883 ft 506 kts 143°
2026-04-26 20:39 30.54315 -82.54231 34881 ft 504 kts 143°
2026-04-26 20:39 30.48683 -82.49184 34883 ft 511 kts 143°
2026-04-26 20:40 30.42981 -82.44082 34875 ft 517 kts 143°
2026-04-26 20:40 30.37226 -82.38937 34883 ft 522 kts 143°
2026-04-26 20:41 30.31322 -82.33664 34870 ft 526 kts 143°
2026-04-26 20:41 30.25460 -82.28447 34869 ft 530 kts 143°
2026-04-26 20:42 30.19260 -82.23634 34717 ft 528 kts 160°
2026-04-26 20:42 30.15723 -82.22540 34588 ft 521 kts 175°
2026-04-26 20:42 30.12105 -82.22008 34625 ft 521 kts 175°
2026-04-26 20:43 30.05033 -82.20673 34645 ft 492 kts 174°
2026-04-26 20:43 30.01695 -82.20011 34474 ft 476 kts 174°
2026-04-26 20:43 29.98462 -82.19373 34062 ft 467 kts 174°
2026-04-26 20:43 29.95241 -82.18744 33480 ft 466 kts 174°
2026-04-26 20:44 29.92021 -82.18106 32963 ft 464 kts 173°
2026-04-26 20:44 29.88820 -82.17467 32546 ft 458 kts 173°
2026-04-26 20:44 29.85659 -82.16836 32155 ft 462 kts 173°
2026-04-26 20:44 29.82469 -82.16198 31780 ft 465 kts 173°
2026-04-26 20:45 29.79195 -82.15543 31382 ft 466 kts 173°
2026-04-26 20:45 29.75991 -82.14907 30966 ft 458 kts 173°
2026-04-26 20:45 29.72836 -82.14278 30544 ft 444 kts 173°
2026-04-26 20:45 29.69798 -82.13675 30110 ft 433 kts 173°
2026-04-26 20:46 29.66832 -82.13085 29631 ft 427 kts 173°
2026-04-26 20:46 29.63864 -82.12497 29121 ft 431 kts 172°
2026-04-26 20:46 29.60862 -82.11896 28514 ft 437 kts 172°
2026-04-26 20:46 29.57812 -82.11289 27796 ft 443 kts 172°
2026-04-26 20:47 29.54636 -82.10656 27060 ft 448 kts 172°
2026-04-26 20:47 29.52512 -82.10233 26615 ft 449 kts 172°
2026-04-26 20:47 29.48233 -82.09378 25799 ft 442 kts 172°
2026-04-26 20:47 29.45099 -82.08759 25253 ft 415 kts 172°
2026-04-26 20:48 29.42164 -82.08188 24748 ft 393 kts 172°
2026-04-26 20:48 29.39368 -82.07637 24269 ft 376 kts 172°
2026-04-26 20:48 29.36714 -82.07115 23834 ft 380 kts 172°
2026-04-26 20:48 29.33984 -82.06574 23381 ft 383 kts 172°
2026-04-26 20:49 29.31239 -82.05997 22928 ft 387 kts 167°
2026-04-26 20:49 29.28670 -82.04660 22341 ft 393 kts 151°
2026-04-26 20:49 29.26240 -82.03114 21671 ft 397 kts 152°
2026-04-26 20:49 29.23725 -82.01524 20975 ft 393 kts 152°
2026-04-26 20:50 29.21258 -81.99970 20291 ft 389 kts 152°
2026-04-26 20:50 29.18832 -81.98441 19624 ft 385 kts 152°
2026-04-26 20:50 29.16416 -81.96922 18959 ft 382 kts 152°
2026-04-26 20:50 29.13987 -81.95397 18295 ft 379 kts 152°
2026-04-26 20:51 29.11585 -81.93886 17642 ft 376 kts 152°
2026-04-26 20:51 29.09258 -81.92426 17010 ft 372 kts 152°
2026-04-26 20:51 29.06950 -81.90907 16387 ft 372 kts 144°
2026-04-26 20:51 29.04965 -81.88863 15795 ft 369 kts 135°
2026-04-26 20:52 29.03040 -81.86795 15176 ft 371 kts 136°
2026-04-26 20:52 29.01122 -81.84728 14560 ft 373 kts 136°
2026-04-26 20:52 28.99197 -81.82663 13919 ft 371 kts 136°
2026-04-26 20:52 28.97424 -81.80512 13283 ft 366 kts 126°
2026-04-26 20:53 28.95871 -81.78143 12627 ft 363 kts 125°
2026-04-26 20:53 28.94335 -81.75871 11941 ft 354 kts 125°
2026-04-26 20:53 28.92846 -81.73669 11243 ft 341 kts 125°
2026-04-26 20:53 28.91386 -81.71506 10526 ft 330 kts 124°
2026-04-26 20:54 28.90023 -81.69495 10197 ft 301 kts 124°
2026-04-26 20:54 28.88705 -81.67541 10116 ft 303 kts 124°
2026-04-26 20:54 28.87378 -81.65559 10025 ft 313 kts 124°
2026-04-26 20:54 28.86008 -81.63511 9597 ft 327 kts 124°
2026-04-26 20:55 28.84614 -81.61455 8857 ft 311 kts 124°
2026-04-26 20:55 28.83300 -81.59538 8167 ft 297 kts 125°
2026-04-26 20:55 28.82023 -81.57663 7511 ft 286 kts 126°
2026-04-26 20:55 28.80805 -81.55872 7013 ft 272 kts 126°
2026-04-26 20:56 28.79639 -81.54155 6966 ft 265 kts 126°
2026-04-26 20:56 28.78534 -81.52381 6783 ft 281 kts 120°
2026-04-26 20:56 28.77448 -81.50392 6489 ft 298 kts 122°
2026-04-26 20:56 28.76336 -81.48430 6173 ft 282 kts 122°
2026-04-26 20:57 28.75273 -81.46558 6082 ft 276 kts 122°
2026-04-26 20:57 28.74232 -81.44710 5997 ft 272 kts 122°
2026-04-26 20:57 28.73380 -81.42784 5871 ft 267 kts 107°
2026-04-26 20:57 28.72786 -81.40750 5638 ft 268 kts 108°
2026-04-26 20:58 28.72148 -81.38693 5412 ft 268 kts 108°
2026-04-26 20:58 28.71539 -81.36730 5178 ft 254 kts 108°
2026-04-26 20:58 28.70954 -81.34866 4958 ft 241 kts 112°
2026-04-26 20:58 28.69930 -81.33388 4656 ft 239 kts 149°
2026-04-26 20:59 28.68329 -81.32880 4400 ft 238 kts 180°
2026-04-26 20:59 28.66637 -81.32888 4144 ft 243 kts 181°
2026-04-26 20:59 28.64885 -81.32870 3853 ft 250 kts 181°
2026-04-26 20:59 28.63113 -81.32855 3533 ft 255 kts 181°
2026-04-26 21:00 28.61324 -81.32838 3207 ft 255 kts 181°
2026-04-26 21:00 28.59564 -81.32825 2887 ft 240 kts 181°
2026-04-26 21:00 28.57925 -81.32809 2560 ft 229 kts 181°
2026-04-26 21:00 28.56373 -81.32798 2297 ft 211 kts 181°
2026-04-26 21:01 28.54936 -81.32783 2001 ft 202 kts 182°
2026-04-26 21:01 28.53603 -81.32776 1781 ft 182 kts 181°
2026-04-26 21:01 28.52354 -81.32763 1523 ft 173 kts 181°
2026-04-26 21:01 28.51154 -81.32755 1286 ft 166 kts 181°
2026-04-26 21:02 28.50026 -81.32740 1069 ft 158 kts 181°
2026-04-26 21:02 28.48979 -81.32733 866 ft 140 kts 181°
2026-04-26 21:02 28.48037 -81.32724 689 ft 128 kts 181°
2026-04-26 21:02 28.47156 -81.32716 540 ft 125 kts 182°
2026-04-26 21:03 28.46259 -81.32709 391 ft 128 kts 181°
2026-04-26 21:03 28.45365 -81.32689 270 ft 125 kts 180°
2026-04-26 21:03 28.44514 -81.32688 121 ft 116 kts 181°
2026-04-26 21:03 28.43786 -81.32687 88 ft 71 kts 179°
2026-04-26 21:04 28.43384 -81.32696 91 ft 48 kts 185°
2026-04-26 21:04 28.43082 -81.32673 91 ft 37 kts 178°
2026-04-26 21:04 28.42908 -81.32725 91 ft 9 kts 257°
2026-04-26 21:04 28.42912 -81.32748 91 ft 1 kts 272°
2026-04-26 21:05 28.42911 -81.32810 91 ft 11 kts 266°
2026-04-26 21:05 28.42892 -81.32909 91 ft 17 kts 224°
2026-04-26 21:05 28.42757 -81.32923 91 ft 20 kts 179°
2026-04-26 21:05 28.42614 -81.32922 91 ft 20 kts 180°
2026-04-26 21:06 28.42469 -81.32922 91 ft 20 kts 178°
2026-04-26 21:06 28.42321 -81.32922 91 ft 21 kts 184°
2026-04-26 21:06 28.42173 -81.32945 91 ft 21 kts 211°
2026-04-26 21:06 28.42129 -81.33083 91 ft 18 kts 272°
2026-04-26 21:07 28.42161 -81.33148 91 ft 6 kts 358°
2026-04-26 21:07 28.42168 -81.33148 91 ft 0 kts